Tracking 25703 objects as of 3-Jul-2022
HD Live streaming from Space Station
objects crossing your sky now

GLOBALSTAR M040

Track GLOBALSTAR M040 now!
10-day predictions
GLOBALSTAR M040 is classified as:


NORAD ID: 25622
Int'l Code: 1999-004B
Perigee: 1,421.8 km
Apogee: 1,422.5 km
Inclination: 52.0 °
Period: 114.1 minutes
Semi major axis: 7793 km
RCS: 2.1681 m2 (large)
Launch date: February 9, 1999
Source: Globalstar (GLOB)
Launch site: TYURATAM MISSILE AND SPACE COMPLEX (TTMTR)
aabbcc
Your satellite tracking list
Your tracking list is empty




NASA's NSSDC Master Catalog

Two Line Element Set (TLE):
1 25622U 99004B   22183.55144384 -.00000052  00000-0  29021-3 0  9994
2 25622  51.9916 106.2697 0000477  92.0348  78.9285 12.61922933 78816
Source of the keplerian elements: AFSPC